| time (UTC) | temp C | wind direction | speed KPH | gust KPH | rain 1hr cm | rain 24hr cm | rain mn cm | humidity % | barometer mb |
| 20260507172529 | 15 | 229 | 0.0 | 1.6 | 0.00 | 0.23 | 0.23 | 78 | 1014.7 |
| 20260507172023 | 15 | 229 | 0.0 | 1.6 | 0.00 | 0.23 | 0.23 | 78 | 1014.7 |
| 20260507171517 | 15 | 77 | 0.0 | 1.6 | 0.00 | 0.23 | 0.23 | 78 | 1014.6 |
| 20260507171011 | 15 | 77 | 0.0 | 1.6 | 0.00 | 0.23 | 0.23 | 77 | 1014.4 |
| 20260507170504 | 15 | 77 | 0.0 | 1.6 | 0.00 | 0.23 | 0.23 | 77 | 1014.4 |
| 20260507170000 | 15 | 213 | 0.0 | 1.6 | 0.00 | 0.23 | 0.23 | 79 | 1014.3 |
| 20260507165453 | 15 | 213 | 0.0 | 0.0 | 0.03 | 0.23 | 0.23 | 79 | 1014.4 |
| 20260507164949 | 15 | 213 | 0.0 | 1.6 | 0.03 | 0.23 | 0.23 | 80 | 1014.4 |
| 20260507164441 | 15 | 213 | 0.0 | 1.6 | 0.23 | 0.23 | 0.23 | 82 | 1014.4 |
| 20260507163935 | 15 | 213 | 0.0 | 1.6 | 0.23 | 0.23 | 0.23 | 81 | 1014.3 |
| 20260507163429 | 15 | 215 | 1.6 | 6.4 | 0.23 | 0.23 | 0.23 | 80 | 1014.3 |
| 20260507162923 | 15 | 210 | 1.6 | 6.4 | 0.23 | 0.23 | 0.23 | 79 | 1014.3 |
| 20260507162639 | 15 | 207 | 3.2 | 9.7 | 0.23 | 0.23 | 0.23 | 78 | 1014.2 |
| 20260507162421 | 15 | 207 | 3.2 | 9.7 | 0.23 | 0.23 | 0.23 | 78 | 1014.2 |
| 20260507161911 | 15 | 125 | 3.2 | 9.7 | 0.23 | 0.23 | 0.23 | 77 | 1014.1 |
| 20260507161405 | 15 | 206 | 1.6 | 6.4 | 0.23 | 0.23 | 0.23 | 75 | 1014.0 |
| 20260507160858 | 15 | 63 | 1.6 | 11.3 | 0.23 | 0.23 | 0.23 | 74 | 1014.0 |
| 20260507160353 | 16 | 134 | 8.0 | 16.1 | 0.23 | 0.25 | 0.23 | 72 | 1013.9 |
| 20260507155847 | 16 | 91 | 9.7 | 16.1 | 0.23 | 0.25 | 0.23 | 65 | 1013.8 |
| 20260507155344 | 16 | 54 | 6.4 | 29.0 | 0.23 | 0.23 | 0.23 | 66 | 1013.8 |
| 20260507154836 | 17 | 77 | 6.4 | 29.0 | 0.20 | 0.23 | 0.20 | 58 | 1014.3 |
| 20260507154329 | 18 | 239 | 6.4 | 16.1 | 0.03 | 0.05 | 0.03 | 62 | 1014.2 |
| 20260507153824 | 19 | 222 | 4.8 | 12.9 | 0.00 | 0.03 | 0.00 | 56 | 1014.0 |
| 20260507153316 | 20 | 178 | 3.2 | 9.7 | 0.00 | 0.03 | 0.00 | 52 | 1013.7 |
| 20260507152812 | 20 | 103 | 3.2 | 9.7 | 0.00 | 0.03 | 0.00 | 51 | 1013.6 |
| 20260507152306 | 20 | 128 | 3.2 | 8.0 | 0.00 | 0.03 | 0.00 | 50 | 1013.5 |
| 20260507152247 | 20 | 122 | 3.2 | 8.0 | 0.00 | 0.03 | 0.00 | 49 | 1013.4 |
| 20260507151253 | 20 | 86 | 1.6 | 6.4 | 0.00 | 0.03 | 0.00 | 49 | 1013.4 |
| 20260507150747 | 20 | 72 | 1.6 | 6.4 | 0.00 | 0.03 | 0.00 | 48 | 1013.4 |
| 20260507150241 | 20 | 77 | 1.6 | 9.7 | 0.00 | 0.03 | 0.00 | 47 | 1013.4 |
| 20260507145735 | 20 | 261 | 3.2 | 9.7 | 0.00 | 0.03 | 0.00 | 47 | 1013.3 |
| 20260507145228 | 20 | 73 | 3.2 | 9.7 | 0.00 | 0.03 | 0.00 | 47 | 1013.3 |
| 20260507144723 | 21 | 162 | 4.8 | 11.3 | 0.00 | 0.03 | 0.00 | 47 | 1013.3 |
| 20260507144217 | 21 | 84 | 4.8 | 11.3 | 0.00 | 0.03 | 0.00 | 46 | 1013.4 |
| 20260507143711 | 21 | 91 | 6.4 | 12.9 | 0.00 | 0.03 | 0.00 | 46 | 1013.3 |
| 20260507142659 | 21 | 82 | 8.0 | 16.1 | 0.00 | 0.03 | 0.00 | 45 | 1013.3 |
| 20260507142153 | 21 | 87 | 9.7 | 19.3 | 0.00 | 0.03 | 0.00 | 45 | 1013.4 |
| 20260507141646 | 21 | 90 | 8.0 | 19.3 | 0.00 | 0.03 | 0.00 | 45 | 1013.3 |
| 20260507141141 | 21 | 90 | 4.8 | 16.1 | 0.00 | 0.03 | 0.00 | 45 | 1013.3 |
| 20260507140635 | 22 | 88 | 4.8 | 14.5 | 0.00 | 0.03 | 0.00 | 44 | 1013.4 |
| 20260507140129 | 22 | 236 | 3.2 | 8.0 | 0.00 | 0.03 | 0.00 | 46 | 1013.3 |
| 20260507135627 | 21 | 88 | 3.2 | 11.3 | 0.00 | 0.03 | 0.00 | 45 | 1013.3 |
| 20260507135130 | 21 | 65 | 3.2 | 11.3 | 0.00 | 0.03 | 0.00 | 44 | 1013.4 |
| 20260507134627 | 22 | 103 | 3.2 | 8.0 | 0.00 | 0.03 | 0.00 | 43 | 1013.4 |
| 20260507134126 | 22 | 282 | 1.6 | 8.0 | 0.00 | 0.03 | 0.00 | 45 | 1013.4 |
| 20260507133628 | 22 | 133 | 1.6 | 6.4 | 0.00 | 0.03 | 0.00 | 44 | 1013.5 |
| 20260507133127 | 22 | 233 | 1.6 | 6.4 | 0.00 | 0.03 | 0.00 | 43 | 1013.6 |
| 20260507132625 | 22 | 234 | 1.6 | 6.4 | 0.00 | 0.03 | 0.00 | 44 | 1013.6 |
| 20260507132125 | 22 | 108 | 1.6 | 8.0 | 0.00 | 0.03 | 0.00 | 45 | 1013.6 |
| 20260507131625 | 21 | 108 | 1.6 | 8.0 | 0.00 | 0.03 | 0.00 | 45 | 1013.6 |
| 20260507131125 | 21 | 99 | 1.6 | 8.0 | 0.00 | 0.03 | 0.00 | 47 | 1013.6 |
| 20260507130625 | 21 | 228 | 3.2 | 8.0 | 0.00 | 0.03 | 0.00 | 47 | 1013.8 |
| 20260507130123 | 20 | 193 | 3.2 | 9.7 | 0.00 | 0.03 | 0.00 | 47 | 1013.8 |
| 20260507125623 | 21 | 215 | 4.8 | 11.3 | 0.00 | 0.03 | 0.00 | 46 | 1013.8 |
| 20260507125121 | 21 | 226 | 3.2 | 11.3 | 0.00 | 0.03 | 0.00 | 45 | 1013.8 |
| 20260507124622 | 21 | 205 | 3.2 | 11.3 | 0.00 | 0.03 | 0.00 | 45 | 1013.8 |
| 20260507124121 | 21 | 52 | 3.2 | 9.7 | 0.00 | 0.03 | 0.00 | 45 | 1013.8 |
| 20260507123622 | 21 | 146 | 3.2 | 8.0 | 0.00 | 0.03 | 0.00 | 44 | 1013.9 |
| 20260507123121 | 22 | 210 | 1.6 | 9.7 | 0.00 | 0.03 | 0.00 | 44 | 1013.9 |
| 20260507122621 | 21 | 248 | 3.2 | 9.7 | 0.00 | 0.03 | 0.00 | 46 | 1013.9 |
| 20260507122121 | 21 | 212 | 3.2 | 9.7 | 0.00 | 0.03 | 0.00 | 46 | 1013.9 |
| 20260507121622 | 21 | 205 | 3.2 | 12.9 | 0.00 | 0.03 | 0.00 | 47 | 1013.9 |
| 20260507121121 | 20 | 209 | 3.2 | 12.9 | 0.00 | 0.03 | 0.00 | 49 | 1014.1 |
| 20260507120621 | 20 | 158 | 3.2 | 12.9 | 0.00 | 0.03 | 0.00 | 49 | 1014.2 |
| 20260507120121 | 20 | 250 | 4.8 | 14.5 | 0.00 | 0.03 | 0.00 | 48 | 1014.2 |
| 20260507115621 | 20 | 146 | 6.4 | 14.5 | 0.00 | 0.03 | 0.00 | 48 | 1014.3 |
| 20260507115121 | 20 | 226 | 4.8 | 12.9 | 0.00 | 0.03 | 0.00 | 46 | 1014.2 |
| 20260507114619 | 21 | 212 | 4.8 | 17.7 | 0.00 | 0.03 | 0.00 | 46 | 1014.2 |
| 20260507114119 | 20 | 198 | 4.8 | 17.7 | 0.00 | 0.03 | 0.00 | 48 | 1014.2 |
| 20260507113619 | 20 | 256 | 3.2 | 12.9 | 0.00 | 0.03 | 0.00 | 48 | 1014.3 |
| 20260507113120 | 20 | 240 | 3.2 | 11.3 | 0.00 | 0.03 | 0.00 | 49 | 1014.3 |
| 20260507112617 | 20 | 262 | 4.8 | 17.7 | 0.00 | 0.03 | 0.00 | 50 | 1014.6 |
| 20260507112117 | 20 | 224 | 4.8 | 19.3 | 0.00 | 0.03 | 0.00 | 50 | 1014.4 |
| 20260507111615 | 20 | 162 | 4.8 | 19.3 | 0.00 | 0.03 | 0.00 | 52 | 1014.6 |
| 20260507111114 | 19 | 153 | 4.8 | 14.5 | 0.00 | 0.03 | 0.00 | 53 | 1014.6 |
| 20260507110615 | 18 | 219 | 4.8 | 14.5 | 0.00 | 0.03 | 0.00 | 53 | 1014.6 |
| 20260507110115 | 18 | 234 | 6.4 | 14.5 | 0.00 | 0.03 | 0.00 | 52 | 1014.8 |
| 20260507105614 | 18 | 203 | 6.4 | 16.1 | 0.00 | 0.03 | 0.00 | 53 | 1014.8 |
| 20260507105113 | 18 | 236 | 4.8 | 16.1 | 0.00 | 0.03 | 0.00 | 53 | 1014.9 |
| 20260507104613 | 18 | 152 | 6.4 | 16.1 | 0.00 | 0.03 | 0.00 | 54 | 1014.9 |
| 20260507104113 | 18 | 205 | 6.4 | 16.1 | 0.00 | 0.03 | 0.00 | 54 | 1015.0 |
| 20260507103613 | 18 | 230 | 3.2 | 12.9 | 0.00 | 0.03 | 0.00 | 54 | 1015.0 |
| 20260507103113 | 18 | 223 | 3.2 | 12.9 | 0.00 | 0.03 | 0.00 | 53 | 1015.0 |
| 20260507102613 | 18 | 198 | 1.6 | 9.7 | 0.00 | 0.03 | 0.00 | 54 | 1015.0 |
| 20260507102111 | 18 | 211 | 3.2 | 11.3 | 0.00 | 0.03 | 0.00 | 54 | 1015.0 |
| 20260507101611 | 18 | 224 | 3.2 | 11.3 | 0.00 | 0.03 | 0.00 | 55 | 1015.1 |
| 20260507101109 | 18 | 266 | 3.2 | 11.3 | 0.00 | 0.03 | 0.00 | 54 | 1015.1 |
| 20260507100607 | 18 | 198 | 4.8 | 11.3 | 0.00 | 0.03 | 0.00 | 54 | 1015.0 |
| 20260507100106 | 18 | 179 | 4.8 | 11.3 | 0.00 | 0.03 | 0.00 | 54 | 1015.0 |
| 20260507095607 | 18 | 214 | 3.2 | 9.7 | 0.00 | 0.03 | 0.00 | 54 | 1014.9 |
| 20260507095107 | 18 | 228 | 1.6 | 9.7 | 0.00 | 0.03 | 0.00 | 55 | 1014.9 |
| 20260507094607 | 18 | 123 | 3.2 | 8.0 | 0.00 | 0.03 | 0.00 | 56 | 1014.8 |
| 20260507094109 | 18 | 199 | 1.6 | 9.7 | 0.00 | 0.03 | 0.00 | 55 | 1014.8 |
| 20260507093608 | 17 | 149 | 1.6 | 9.7 | 0.00 | 0.03 | 0.00 | 57 | 1014.9 |
| 20260507093107 | 17 | 275 | 3.2 | 12.9 | 0.00 | 0.03 | 0.00 | 57 | 1015.0 |
| 20260507092607 | 17 | 191 | 4.8 | 12.9 | 0.00 | 0.03 | 0.00 | 57 | 1015.0 |
| 20260507092107 | 17 | 241 | 4.8 | 17.7 | 0.00 | 0.03 | 0.00 | 57 | 1014.8 |
| 20260507091613 | 17 | 198 | 4.8 | 17.7 | 0.00 | 0.03 | 0.00 | 57 | 1014.8 |
| 20260507091106 | 17 | 266 | 6.4 | 17.7 | 0.00 | 0.03 | 0.00 | 57 | 1014.7 |
| 20260507090608 | 17 | 76 | 6.4 | 19.3 | 0.00 | 0.03 | 0.00 | 56 | 1014.6 |
| 20260507090106 | 17 | 221 | 6.4 | 22.5 | 0.00 | 0.03 | 0.00 | 57 | 1014.6 |
| 20260507085606 | 17 | 219 | 6.4 | 22.5 | 0.00 | 0.03 | 0.00 | 56 | 1014.4 |
| 20260507085107 | 17 | 229 | 6.4 | 17.7 | 0.00 | 0.03 | 0.00 | 57 | 1014.4 |
| 20260507084607 | 17 | 251 | 8.0 | 17.7 | 0.00 | 0.03 | 0.00 | 57 | 1014.3 |
| 20260507084107 | 17 | 251 | 8.0 | 22.5 | 0.00 | 0.03 | 0.00 | 57 | 1014.2 |
| 20260507083606 | 17 | 208 | 6.4 | 22.5 | 0.00 | 0.03 | 0.00 | 56 | 1014.1 |
| 20260507083107 | 17 | 227 | 4.8 | 14.5 | 0.00 | 0.03 | 0.00 | 58 | 1014.1 |
| 20260507082607 | 17 | 135 | 4.8 | 14.5 | 0.00 | 0.03 | 0.00 | 56 | 1014.0 |
| 20260507082103 | 17 | 209 | 3.2 | 19.3 | 0.00 | 0.03 | 0.00 | 59 | 1014.1 |
| 20260507081603 | 16 | 213 | 4.8 | 19.3 | 0.00 | 0.03 | 0.00 | 60 | 1014.0 |
| 20260507081103 | 16 | 124 | 4.8 | 24.1 | 0.00 | 0.03 | 0.00 | 60 | 1014.1 |
| 20260507080603 | 16 | 230 | 4.8 | 24.1 | 0.00 | 0.03 | 0.00 | 61 | 1014.1 |
| 20260507080103 | 16 | 266 | 4.8 | 14.5 | 0.00 | 0.03 | 0.00 | 61 | 1014.1 |
| 20260507075603 | 16 | 252 | 6.4 | 16.1 | 0.00 | 0.03 | 0.00 | 61 | 1014.0 |
| 20260507075103 | 16 | 249 | 6.4 | 20.9 | 0.00 | 0.03 | 0.00 | 61 | 1013.9 |
| 20260507074603 | 16 | 243 | 8.0 | 29.0 | 0.00 | 0.03 | 0.00 | 61 | 1013.8 |
| 20260507074103 | 16 | 220 | 6.4 | 29.0 | 0.00 | 0.03 | 0.00 | 62 | 1013.7 |
| 20260507073559 | 16 | 93 | 6.4 | 17.7 | 0.00 | 0.03 | 0.00 | 63 | 1013.5 |
| 20260507073059 | 15 | 225 | 6.4 | 16.1 | 0.00 | 0.03 | 0.00 | 64 | 1013.4 |
| 20260507072558 | 15 | 240 | 4.8 | 16.1 | 0.00 | 0.03 | 0.00 | 64 | 1013.4 |
| 20260507072058 | 15 | 238 | 3.2 | 19.3 | 0.00 | 0.03 | 0.00 | 66 | 1013.4 |
| 20260507071558 | 15 | 248 | 3.2 | 19.3 | 0.00 | 0.03 | 0.00 | 65 | 1013.4 |
| 20260507071059 | 15 | 222 | 4.8 | 17.7 | 0.00 | 0.03 | 0.00 | 66 | 1013.5 |
| 20260507070559 | 15 | 257 | 4.8 | 16.1 | 0.00 | 0.03 | 0.00 | 66 | 1013.4 |
| 20260507070059 | 15 | 232 | 6.4 | 19.3 | 0.00 | 0.03 | 0.00 | 66 | 1013.3 |
| 20260507065559 | 15 | 233 | 8.0 | 22.5 | 0.00 | 0.03 | 0.00 | 66 | 1013.2 |
| 20260507065055 | 15 | 173 | 8.0 | 22.5 | 0.00 | 0.03 | 0.00 | 66 | 1013.1 |
| 20260507064555 | 15 | 191 | 8.0 | 22.5 | 0.00 | 0.03 | 0.00 | 66 | 1013.2 |
| 20260507064055 | 15 | 182 | 8.0 | 22.5 | 0.00 | 0.03 | 0.00 | 66 | 1013.2 |
| 20260507063555 | 15 | 160 | 8.0 | 19.3 | 0.00 | 0.03 | 0.00 | 66 | 1013.2 |
| 20260507063055 | 15 | 186 | 9.7 | 27.4 | 0.00 | 0.03 | 0.00 | 66 | 1013.1 |
| 20260507062554 | 15 | 221 | 9.7 | 27.4 | 0.00 | 0.03 | 0.00 | 66 | 1012.9 |
| 20260507062055 | 15 | 268 | 11.3 | 24.1 | 0.00 | 0.03 | 0.00 | 66 | 1012.9 |
| 20260507061555 | 15 | 226 | 11.3 | 24.1 | 0.00 | 0.03 | 0.00 | 66 | 1012.9 |
| 20260507061055 | 15 | 229 | 9.7 | 24.1 | 0.00 | 0.03 | 0.00 | 66 | 1012.8 |
| 20260507060555 | 14 | 236 | 9.7 | 24.1 | 0.00 | 0.03 | 0.00 | 67 | 1012.7 |
| 20260507060055 | 14 | 206 | 9.7 | 17.7 | 0.00 | 0.03 | 0.00 | 67 | 1012.7 |
| 20260507055555 | 14 | 198 | 9.7 | 19.3 | 0.00 | 0.03 | 0.00 | 68 | 1012.6 |
| 20260507055055 | 14 | 179 | 9.7 | 24.1 | 0.00 | 0.03 | 0.00 | 68 | 1012.6 |
| 20260507054554 | 14 | 208 | 11.3 | 24.1 | 0.00 | 0.03 | 0.00 | 68 | 1012.6 |
| 20260507054054 | 14 | 233 | 11.3 | 20.9 | 0.00 | 0.03 | 0.00 | 68 | 1012.5 |
| 20260507053554 | 14 | 155 | 9.7 | 22.5 | 0.00 | 0.03 | 0.00 | 68 | 1012.4 |
| 20260507053054 | 14 | 223 | 11.3 | 22.5 | 0.00 | 0.03 | 0.00 | 68 | 1012.3 |
| 20260507052554 | 14 | 230 | 9.7 | 22.5 | 0.00 | 0.03 | 0.00 | 68 | 1012.3 |
| 20260507052054 | 14 | 151 | 9.7 | 22.5 | 0.00 | 0.03 | 0.00 | 68 | 1012.3 |
| 20260507051555 | 14 | 231 | 9.7 | 22.5 | 0.00 | 0.03 | 0.00 | 68 | 1012.3 |
| 20260507051055 | 14 | 213 | 9.7 | 22.5 | 0.00 | 0.03 | 0.00 | 68 | 1012.2 |
| 20260507050555 | 14 | 128 | 11.3 | 22.5 | 0.00 | 0.03 | 0.00 | 68 | 1012.2 |
| 20260507050054 | 14 | 93 | 9.7 | 20.9 | 0.00 | 0.03 | 0.00 | 68 | 1012.1 |
| 20260507045553 | 14 | 131 | 9.7 | 20.9 | 0.00 | 0.03 | 0.00 | 68 | 1012.1 |
| 20260507045053 | 14 | 212 | 11.3 | 20.9 | 0.00 | 0.03 | 0.00 | 68 | 1011.8 |
| 20260507044549 | 14 | 189 | 9.7 | 20.9 | 0.00 | 0.03 | 0.00 | 68 | 1011.8 |
| 20260507044049 | 14 | 203 | 9.7 | 20.9 | 0.00 | 0.03 | 0.00 | 68 | 1011.9 |
| 20260507043548 | 14 | 143 | 11.3 | 32.2 | 0.00 | 0.03 | 0.00 | 68 | 1011.8 |
| 20260507043049 | 14 | 231 | 11.3 | 32.2 | 0.00 | 0.03 | 0.00 | 68 | 1011.9 |
| 20260507042547 | 14 | 213 | 11.3 | 27.4 | 0.00 | 0.03 | 0.00 | 67 | 1011.7 |
| 20260507042048 | 14 | 140 | 9.7 | 27.4 | 0.00 | 0.03 | 0.00 | 67 | 1011.7 |
| 20260507041540 | 14 | 268 | 8.0 | 20.9 | 0.00 | 0.03 | 0.00 | 67 | 1011.6 |
| 20260507041039 | 14 | 156 | 9.7 | 19.3 | 0.00 | 0.03 | 0.00 | 68 | 1011.6 |
| 20260507040537 | 14 | 142 | 11.3 | 20.9 | 0.00 | 0.03 | 0.00 | 68 | 1011.4 |
| 20260507040037 | 14 | 198 | 11.3 | 25.7 | 0.00 | 0.03 | 0.00 | 68 | 1011.4 |
| 20260507035536 | 14 | 209 | 11.3 | 25.7 | 0.00 | 0.03 | 0.00 | 68 | 1011.4 |
| 20260507035035 | 14 | 252 | 11.3 | 25.7 | 0.00 | 0.03 | 0.00 | 68 | 1011.4 |
| 20260507034535 | 14 | 247 | 11.3 | 29.0 | 0.00 | 0.03 | 0.00 | 68 | 1011.4 |
| 20260507034035 | 14 | 203 | 11.3 | 29.0 | 0.00 | 0.03 | 0.00 | 68 | 1011.4 |
| 20260507033533 | 14 | 174 | 11.3 | 27.4 | 0.00 | 0.03 | 0.00 | 68 | 1011.4 |
| 20260507033033 | 14 | 165 | 11.3 | 27.4 | 0.00 | 0.03 | 0.00 | 68 | 1011.3 |
| 20260507032533 | 14 | 209 | 11.3 | 25.7 | 0.00 | 0.03 | 0.00 | 68 | 1011.3 |
| 20260507032031 | 14 | 37 | 11.3 | 22.5 | 0.00 | 0.03 | 0.00 | 68 | 1011.3 |
| 20260507031531 | 14 | 204 | 9.7 | 19.3 | 0.00 | 0.03 | 0.00 | 68 | 1011.3 |
| 20260507031031 | 14 | 131 | 9.7 | 19.3 | 0.00 | 0.03 | 0.00 | 68 | 1011.2 |
| 20260507030530 | 15 | 261 | 8.0 | 22.5 | 0.00 | 0.03 | 0.00 | 68 | 1011.3 |
| 20260507030025 | 15 | 194 | 8.0 | 22.5 | 0.00 | 0.03 | 0.00 | 68 | 1011.1 |
| 20260507025517 | 15 | 203 | 8.0 | 17.7 | 0.00 | 0.03 | 0.00 | 68 | 1011.1 |
| 20260507025012 | 15 | 207 | 9.7 | 19.3 | 0.00 | 0.03 | 0.00 | 68 | 1011.1 |
| 20260507024506 | 15 | 213 | 9.7 | 20.9 | 0.00 | 0.03 | 0.00 | 68 | 1011.1 |
| 20260507024000 | 15 | 154 | 11.3 | 20.9 | 0.00 | 0.03 | 0.00 | 68 | 1011.0 |
| 20260507023454 | 15 | 205 | 12.9 | 22.5 | 0.00 | 0.03 | 0.00 | 69 | 1011.0 |
| 20260507022948 | 15 | 181 | 11.3 | 22.5 | 0.00 | 0.03 | 0.00 | 69 | 1010.9 |
| 20260507022441 | 15 | 146 | 8.0 | 19.3 | 0.00 | 0.03 | 0.00 | 69 | 1011.0 |
| 20260507021937 | 15 | 224 | 9.7 | 22.5 | 0.00 | 0.03 | 0.00 | 69 | 1010.9 |
| 20260507021430 | 15 | 203 | 9.7 | 22.5 | 0.00 | 0.03 | 0.00 | 69 | 1010.9 |
| 20260507020924 | 15 | 259 | 9.7 | 22.5 | 0.00 | 0.03 | 0.00 | 70 | 1010.8 |
| 20260507020418 | 15 | 188 | 9.7 | 22.5 | 0.00 | 0.03 | 0.00 | 70 | 1010.8 |
| 20260507015912 | 15 | 174 | 8.0 | 19.3 | 0.00 | 0.03 | 0.00 | 71 | 1010.8 |
| 20260507015407 | 15 | 89 | 9.7 | 19.3 | 0.00 | 0.03 | 0.00 | 71 | 1010.9 |
| 20260507014859 | 15 | 160 | 8.0 | 19.3 | 0.00 | 0.03 | 0.00 | 71 | 1011.0 |
| 20260507014354 | 15 | 250 | 6.4 | 19.3 | 0.00 | 0.03 | 0.00 | 71 | 1011.0 |
| 20260507013848 | 15 | 187 | 6.4 | 17.7 | 0.00 | 0.03 | 0.00 | 71 | 1010.9 |
| 20260507013342 | 15 | 216 | 8.0 | 17.7 | 0.00 | 0.03 | 0.00 | 71 | 1010.8 |
| 20260507012837 | 15 | 219 | 8.0 | 16.1 | 0.00 | 0.03 | 0.00 | 71 | 1010.7 |
| 20260507012331 | 15 | 178 | 8.0 | 17.7 | 0.00 | 0.03 | 0.00 | 71 | 1010.8 |
| 20260507011829 | 15 | 200 | 9.7 | 20.9 | 0.00 | 0.03 | 0.00 | 71 | 1010.7 |
| 20260507011329 | 15 | 163 | 9.7 | 20.9 | 0.00 | 0.03 | 0.00 | 71 | 1010.6 |
| 20260507010828 | 15 | 226 | 8.0 | 19.3 | 0.00 | 0.03 | 0.00 | 71 | 1010.6 |
| 20260507010329 | 15 | 218 | 9.7 | 22.5 | 0.00 | 0.03 | 0.00 | 70 | 1010.7 |
| 20260507005829 | 15 | 219 | 11.3 | 22.5 | 0.00 | 0.03 | 0.00 | 70 | 1010.6 |
| 20260507005328 | 15 | 193 | 11.3 | 22.5 | 0.00 | 0.03 | 0.00 | 70 | 1010.4 |
| 20260507004829 | 15 | 159 | 11.3 | 22.5 | 0.00 | 0.03 | 0.00 | 70 | 1010.4 |
| 20260507004329 | 15 | 190 | 12.9 | 24.1 | 0.00 | 0.03 | 0.00 | 70 | 1010.3 |
| 20260507003829 | 15 | 186 | 12.9 | 27.4 | 0.00 | 0.03 | 0.00 | 70 | 1010.2 |
| 20260507003328 | 15 | 169 | 11.3 | 27.4 | 0.00 | 0.03 | 0.00 | 70 | 1010.1 |
| 20260507002829 | 15 | 210 | 11.3 | 22.5 | 0.00 | 0.03 | 0.00 | 70 | 1010.0 |
| 20260507002329 | 16 | 166 | 12.9 | 27.4 | 0.00 | 0.03 | 0.00 | 70 | 1010.0 |
| 20260507001829 | 16 | 165 | 12.9 | 27.4 | 0.00 | 0.03 | 0.00 | 70 | 1010.1 |
| 20260507001329 | 16 | 292 | 11.3 | 25.7 | 0.00 | 0.03 | 0.00 | 70 | 1010.1 |
| 20260507000829 | 16 | 229 | 8.0 | 24.1 | 0.00 | 0.03 | 0.00 | 70 | 1009.9 |
| 20260507000329 | 16 | 127 | 8.0 | 24.1 | 0.00 | 0.03 | 0.00 | 70 | 1010.0 |
| 20260506235828 | 16 | 216 | 8.0 | 17.7 | 0.00 | 0.03 | 0.00 | 71 | 1009.9 |
| 20260506235323 | 16 | 158 | 8.0 | 25.7 | 0.00 | 0.03 | 0.00 | 71 | 1010.0 |
| 20260506234816 | 16 | 228 | 8.0 | 25.7 | 0.00 | 0.03 | 0.00 | 71 | 1009.9 |
| 20260506234310 | 16 | 195 | 8.0 | 19.3 | 0.00 | 0.03 | 0.00 | 72 | 1009.9 |
| 20260506233805 | 16 | 180 | 8.0 | 22.5 | 0.00 | 0.03 | 0.00 | 72 | 1009.8 |
| 20260506233258 | 16 | 213 | 8.0 | 22.5 | 0.00 | 0.03 | 0.00 | 72 | 1009.8 |
| 20260506232752 | 16 | 256 | 9.7 | 20.9 | 0.00 | 0.03 | 0.00 | 72 | 1009.8 |
| 20260506232246 | 16 | 245 | 9.7 | 20.9 | 0.00 | 0.03 | 0.00 | 72 | 1009.8 |
| 20260506231740 | 16 | 297 | 8.0 | 17.7 | 0.00 | 0.03 | 0.00 | 72 | 1009.8 |
| 20260506231236 | 16 | 211 | 9.7 | 29.0 | 0.00 | 0.03 | 0.00 | 72 | 1009.7 |
| 20260506230736 | 16 | 173 | 11.3 | 29.0 | 0.00 | 0.03 | 0.00 | 72 | 1009.4 |
| 20260506230236 | 16 | 210 | 11.3 | 24.1 | 0.00 | 0.03 | 0.00 | 71 | 1009.3 |
| 20260506225737 | 16 | 176 | 11.3 | 24.1 | 0.00 | 0.03 | 0.00 | 70 | 1009.2 |
| 20260506225236 | 17 | 219 | 12.9 | 27.4 | 0.00 | 0.03 | 0.00 | 70 | 1009.1 |
| 20260506224736 | 17 | 167 | 12.9 | 27.4 | 0.00 | 0.03 | 0.00 | 69 | 1009.2 |
| 20260506224237 | 17 | 234 | 9.7 | 22.5 | 0.00 | 0.03 | 0.00 | 68 | 1009.1 |
| 20260506223736 | 17 | 209 | 8.0 | 22.5 | 0.00 | 0.03 | 0.00 | 67 | 1009.1 |
| 20260506223237 | 17 | 243 | 8.0 | 17.7 | 0.00 | 0.03 | 0.00 | 66 | 1008.9 |
| 20260506222735 | 17 | 214 | 6.4 | 14.5 | 0.00 | 0.03 | 0.00 | 66 | 1008.8 |
| 20260506222235 | 17 | 242 | 4.8 | 16.1 | 0.00 | 0.03 | 0.00 | 65 | 1008.6 |
| 20260506221734 | 17 | 216 | 4.8 | 16.1 | 0.00 | 0.03 | 0.00 | 65 | 1008.5 |
| 20260506221235 | 17 | 220 | 4.8 | 11.3 | 0.00 | 0.03 | 0.00 | 65 | 1008.5 |
| 20260506220735 | 17 | 257 | 4.8 | 12.9 | 0.00 | 0.03 | 0.00 | 65 | 1007.9 |
| 20260506220718 | 17 | 123 | 3.2 | 12.9 | 0.00 | 0.03 | 0.00 | 65 | 1008.0 |
| 20260506220222 | 17 | 205 | 0.0 | 3.2 | 0.00 | 0.03 | 0.03 | 65 | 1007.8 |
| 20260506215232 | 18 | 199 | 0.0 | 4.8 | 0.00 | 0.03 | 0.03 | 65 | 1007.5 |
| 20260506214729 | 18 | 219 | 0.0 | 4.8 | 0.00 | 0.03 | 0.03 | 64 | 1007.5 |
| 20260506214224 | 18 | 236 | 0.0 | 3.2 | 0.00 | 0.03 | 0.03 | 64 | 1007.4 |
| 20260506213717 | 18 | 236 | 1.6 | 8.0 | 0.00 | 0.03 | 0.03 | 64 | 1007.4 |
| 20260506213210 | 18 | 233 | 1.6 | 8.0 | 0.00 | 0.03 | 0.03 | 64 | 1007.3 |
| 20260506212705 | 18 | 143 | 3.2 | 14.5 | 0.00 | 0.03 | 0.03 | 63 | 1007.3 |
| 20260506212159 | 18 | 93 | 8.0 | 22.5 | 0.00 | 0.03 | 0.03 | 62 | 1007.1 |
| 20260506212135 | 18 | 86 | 11.3 | 25.7 | 0.00 | 0.03 | 0.03 | 62 | 1006.9 |
| 20260506211146 | 18 | 46 | 16.1 | 25.7 | 0.00 | 0.03 | 0.03 | 62 | 1006.9 |
| 20260506210640 | 19 | 52 | 14.5 | 24.1 | 0.00 | 0.03 | 0.03 | 62 | 1006.8 |
| 20260506210135 | 19 | 81 | 14.5 | 29.0 | 0.00 | 0.03 | 0.03 | 62 | 1006.8 |
| 20260506205628 | 19 | 92 | 12.9 | 29.0 | 0.00 | 0.03 | 0.03 | 61 | 1006.7 |
| 20260506205123 | 19 | 83 | 9.7 | 22.5 | 0.00 | 0.03 | 0.03 | 61 | 1006.7 |
| 20260506204616 | 19 | 79 | 9.7 | 20.9 | 0.00 | 0.03 | 0.03 | 61 | 1006.8 |
| 20260506204112 | 19 | 103 | 9.7 | 17.7 | 0.00 | 0.03 | 0.03 | 61 | 1006.8 |
| 20260506203605 | 19 | 93 | 9.7 | 20.9 | 0.00 | 0.03 | 0.03 | 61 | 1006.7 |
| 20260506203101 | 19 | 100 | 11.3 | 22.5 | 0.00 | 0.03 | 0.03 | 60 | 1006.7 |
| 20260506202553 | 19 | 85 | 12.9 | 25.7 | 0.00 | 0.03 | 0.03 | 60 | 1006.5 |
| 20260506202047 | 19 | 93 | 14.5 | 37.0 | 0.00 | 0.03 | 0.03 | 60 | 1006.5 |
| 20260506201541 | 20 | 77 | 11.3 | 37.0 | 0.00 | 0.03 | 0.03 | 60 | 1006.4 |
| 20260506201035 | 20 | 61 | 9.7 | 22.5 | 0.00 | 0.03 | 0.03 | 60 | 1006.5 |
| 20260506200529 | 20 | 87 | 14.5 | 33.8 | 0.00 | 0.03 | 0.03 | 59 | 1006.5 |
| 20260506200023 | 20 | 63 | 16.1 | 33.8 | 0.00 | 0.03 | 0.03 | 59 | 1006.3 |
| 20260506195517 | 20 | 73 | 12.9 | 27.4 | 0.00 | 0.03 | 0.03 | 59 | 1006.1 |
| 20260506195011 | 20 | 98 | 12.9 | 32.2 | 0.00 | 0.03 | 0.03 | 59 | 1006.1 |
| 20260506194505 | 20 | 82 | 16.1 | 37.0 | 0.00 | 0.03 | 0.03 | 59 | 1006.0 |
| 20260506193959 | 20 | 63 | 14.5 | 37.0 | 0.00 | 0.03 | 0.03 | 58 | 1005.9 |
| 20260506193456 | 20 | 100 | 14.5 | 32.2 | 0.00 | 0.03 | 0.03 | 58 | 1006.0 |
| 20260506192946 | 20 | 101 | 14.5 | 37.0 | 0.00 | 0.03 | 0.03 | 58 | 1005.8 |
| 20260506192441 | 20 | 73 | 14.5 | 37.0 | 0.00 | 0.03 | 0.03 | 58 | 1005.7 |
| 20260506191935 | 20 | 91 | 12.9 | 29.0 | 0.00 | 0.03 | 0.03 | 58 | 1005.7 |
| 20260506191428 | 20 | 153 | 12.9 | 29.0 | 0.00 | 0.03 | 0.03 | 58 | 1005.7 |
| 20260506190922 | 20 | 72 | 12.9 | 22.5 | 0.00 | 0.03 | 0.03 | 57 | 1005.6 |
| 20260506190417 | 20 | 85 | 12.9 | 32.2 | 0.00 | 0.03 | 0.03 | 57 | 1005.6 |
| 20260506185911 | 20 | 89 | 14.5 | 32.2 | 0.00 | 0.03 | 0.03 | 57 | 1005.6 |
| 20260506185405 | 20 | 86 | 17.7 | 32.2 | 0.00 | 0.03 | 0.03 | 56 | 1005.5 |
| 20260506184858 | 21 | 84 | 19.3 | 32.2 | 0.00 | 0.03 | 0.03 | 56 | 1005.4 |
| 20260506184353 | 21 | 80 | 16.1 | 29.0 | 0.00 | 0.03 | 0.03 | 56 | 1005.4 |
| 20260506183849 | 21 | 84 | 14.5 | 33.8 | 0.00 | 0.03 | 0.03 | 56 | 1005.4 |
| 20260506183341 | 21 | 72 | 16.1 | 33.8 | 0.00 | 0.03 | 0.03 | 55 | 1005.2 |
| 20260506182835 | 21 | 338 | 16.1 | 35.4 | 0.00 | 0.03 | 0.03 | 55 | 1005.3 |
| 20260506182329 | 21 | 150 | 12.9 | 27.4 | 0.00 | 0.03 | 0.03 | 55 | 1005.2 |
| 20260506181823 | 21 | 87 | 14.5 | 30.6 | 0.00 | 0.03 | 0.03 | 54 | 1005.3 |
| 20260506181316 | 21 | 91 | 17.7 | 30.6 | 0.00 | 0.03 | 0.03 | 54 | 1005.2 |
| 20260506180811 | 21 | 34 | 17.7 | 32.2 | 0.00 | 0.03 | 0.03 | 54 | 1005.2 |
| 20260506180305 | 21 | 71 | 17.7 | 32.2 | 0.00 | 0.03 | 0.03 | 53 | 1005.1 |
| 20260506175758 | 21 | 89 | 17.7 | 35.4 | 0.00 | 0.03 | 0.03 | 53 | 1005.1 |
| 20260506175252 | 22 | 112 | 19.3 | 37.0 | 0.00 | 0.03 | 0.03 | 53 | 1005.1 |
| 20260506174747 | 22 | 76 | 17.7 | 37.0 | 0.00 | 0.03 | 0.03 | 53 | 1005.0 |
| 20260506174244 | 22 | 84 | 14.5 | 29.0 | 0.00 | 0.03 | 0.03 | 53 | 1005.0 |
| 20260506173735 | 22 | 100 | 16.1 | 33.8 | 0.00 | 0.03 | 0.03 | 53 | 1005.0 |
| 20260506173229 | 22 | 77 | 16.1 | 33.8 | 0.00 | 0.03 | 0.03 | 52 | 1005.0 |